• In Deutschland
  • Länderverzeichnis
  • Für 7 Tage
  • Wassertemperatur
  • Satellitenkarten
  • Wetterkarte
  • Widgets
  • user-avatar
    Anmelden

    Stündliche Wetter Medellín

    Heute, 25 September, Montag

    Zeit Temperatur Niederschläge Wind Luftdruck Luftfeuchtigkeit
    00:00 +14°C° 0,5 mm 1 m/S 586 mmHg 91%
    01:00 +14°C° 0,5 mm 1 m/S 585 mmHg 91%
    02:00 +13°C° 0,6 mm 0 m/S 585 mmHg 91%
    03:00 +13°C° 0,6 mm 0 m/S 585 mmHg 91%
    04:00 +12°C° 0,6 mm 0 m/S 585 mmHg 91%
    05:00 +13°C° 0,6 mm 0 m/S 585 mmHg 90%
    06:00 +13°C° 0,6 mm 0 m/S 586 mmHg 89%
    07:00 +13°C° 0,6 mm 0 m/S 586 mmHg 88%
    08:00 +15°C° 0,6 mm 0 m/S 587 mmHg 82%
    09:00 +16°C° 0,6 mm 0 m/S 587 mmHg 77%
    10:00 +20°C° 0,6 mm 1 m/S 588 mmHg 72%
    11:00 +21°C° 0,4 mm 1 m/S 588 mmHg 67%
    12:00 +22°C° 0,4 mm 1 m/S 588 mmHg 62%
    13:00 +24°C° 0,4 mm 1 m/S 588 mmHg 57%
    14:00 +23°C° 0,9 mm 1 m/S 587 mmHg 62%
    15:00 +22°C° 0,9 mm 1 m/S 587 mmHg 66%
    16:00 +21°C° 0,9 mm 1 m/S 586 mmHg 71%
    17:00 +19°C° 0,6 mm 1 m/S 586 mmHg 77%
    18:00 +16°C° 0,6 mm 1 m/S 585 mmHg 82%
    19:00 +15°C° 0,6 mm 1 m/S 585 mmHg 88%
    20:00 +15°C° 0,4 mm 1 m/S 585 mmHg 90%
    21:00 +13°C° 0,4 mm 0 m/S 586 mmHg 91%
    22:00 +13°C° 0,4 mm 0 m/S 586 mmHg 93%
    23:00 +13°C° 1,3 mm 0 m/S 586 mmHg 93%

    Morgen, 26 September, Dienstag

    Zeit Temperatur Niederschläge Wind Luftdruck Luftfeuchtigkeit
    00:00 +13°C° 1,3 mm 0 m/S 585 mmHg 94%
    01:00 +12°C° 1,3 mm 0 m/S 585 mmHg 94%
    02:00 +12°C° 1,6 mm 0 m/S 585 mmHg 94%
    03:00 +12°C° 1,6 mm 0 m/S 585 mmHg 94%
    04:00 +12°C° 1,6 mm 0 m/S 584 mmHg 94%
    05:00 +12°C° 0,7 mm 0 m/S 585 mmHg 93%
    06:00 +13°C° 0,7 mm 0 m/S 585 mmHg 92%
    07:00 +13°C° 0,7 mm 0 m/S 586 mmHg 90%
    08:00 +15°C° 0,3 mm 0 m/S 587 mmHg 83%
    09:00 +17°C° 0,3 mm 0 m/S 588 mmHg 75%
    10:00 +21°C° 0,3 mm 1 m/S 589 mmHg 67%
    11:00 +21°C° 0,7 mm 1 m/S 588 mmHg 67%
    12:00 +22°C° 0,7 mm 1 m/S 588 mmHg 66%
    13:00 +22°C° 0,7 mm 1 m/S 588 mmHg 66%
    14:00 +22°C° 0,9 mm 1 m/S 587 mmHg 68%
    15:00 +21°C° 0,9 mm 1 m/S 586 mmHg 70%
    16:00 +21°C° 0,9 mm 1 m/S 585 mmHg 72%
    17:00 +19°C° 0,3 mm 1 m/S 585 mmHg 78%
    18:00 +16°C° 0,3 mm 1 m/S 585 mmHg 84%
    19:00 +15°C° 0,3 mm 1 m/S 585 mmHg 90%
    20:00 +14°C° 0,1 mm 1 m/S 585 mmHg 91%
    21:00 +14°C° 0,1 mm 1 m/S 585 mmHg 91%
    22:00 +14°C° 0,1 mm 1 m/S 586 mmHg 92%
    23:00 +14°C° 0,3 mm 1 m/S 585 mmHg 92%

    übermorgen, 27 September, Mittwoch

    Zeit Temperatur Niederschläge Wind Luftdruck Luftfeuchtigkeit
    00:00 +13°C° 0,3 mm 0 m/S 585 mmHg 92%
    01:00 +12°C° 0,3 mm 0 m/S 585 mmHg 91%
    02:00 +12°C° 0,3 mm 0 m/S 585 mmHg 91%
    03:00 +12°C° 0,3 mm 0 m/S 584 mmHg 90%
    04:00 +12°C° 0,3 mm 0 m/S 584 mmHg 90%
    05:00 +12°C° 0,1 mm 0 m/S 584 mmHg 88%
    06:00 +12°C° 0,1 mm 0 m/S 585 mmHg 87%
    07:00 +13°C° 0,1 mm 0 m/S 585 mmHg 85%
    08:00 +18°C° 0 mm 1 m/S 587 mmHg 73%
    09:00 +20°C° 0 mm 1 m/S 588 mmHg 61%
    10:00 +23°C° 0 mm 1 m/S 589 mmHg 49%
    11:00 +24°C° 0,2 mm 1 m/S 589 mmHg 51%
    12:00 +24°C° 0,2 mm 1 m/S 589 mmHg 52%
    13:00 +25°C° 0,2 mm 1 m/S 588 mmHg 53%
    14:00 +24°C° 0,6 mm 1 m/S 587 mmHg 58%
    15:00 +23°C° 0,6 mm 1 m/S 586 mmHg 62%
    16:00 +21°C° 0,6 mm 1 m/S 585 mmHg 66%
    17:00 +20°C° 0,9 mm 1 m/S 585 mmHg 74%
    18:00 +18°C° 0,9 mm 1 m/S 585 mmHg 81%
    19:00 +15°C° 0,9 mm 1 m/S 585 mmHg 89%
    20:00 +15°C° 1,1 mm 1 m/S 585 mmHg 90%
    21:00 +15°C° 1,1 mm 1 m/S 585 mmHg 92%
    22:00 +13°C° 1,1 mm 0 m/S 586 mmHg 94%
    23:00 +13°C° 0,6 mm 0 m/S 586 mmHg 94%

    28 September, Donnerstag

    Zeit Temperatur Niederschläge Wind Luftdruck Luftfeuchtigkeit
    00:00 +13°C° 0,6 mm 0 m/S 585 mmHg 94%
    01:00 +13°C° 0,6 mm 0 m/S 585 mmHg 94%
    02:00 +13°C° 0,9 mm 0 m/S 585 mmHg 94%
    03:00 +13°C° 0,9 mm 0 m/S 585 mmHg 94%
    04:00 +12°C° 0,9 mm 0 m/S 585 mmHg 94%
    05:00 +13°C° 1,3 mm 0 m/S 585 mmHg 93%
    06:00 +13°C° 1,3 mm 0 m/S 586 mmHg 93%
    07:00 +13°C° 1,3 mm 0 m/S 586 mmHg 92%
    08:00 +14°C° 0,7 mm 0 m/S 587 mmHg 87%
    09:00 +16°C° 0,7 mm 0 m/S 587 mmHg 82%
    10:00 +17°C° 0,7 mm 0 m/S 588 mmHg 77%
    11:00 +18°C° 0,7 mm 0 m/S 588 mmHg 75%
    12:00 +19°C° 0,7 mm 0 m/S 587 mmHg 72%
    13:00 +20°C° 0,7 mm 0 m/S 587 mmHg 70%
    14:00 +19°C° 1,1 mm 0 m/S 586 mmHg 73%
    15:00 +21°C° 1,1 mm 1 m/S 586 mmHg 76%
    16:00 +20°C° 1,1 mm 1 m/S 585 mmHg 79%
    17:00 +19°C° 1,5 mm 1 m/S 585 mmHg 84%
    18:00 +16°C° 1,5 mm 1 m/S 585 mmHg 89%
    19:00 +15°C° 1,5 mm 1 m/S 585 mmHg 94%
    20:00 +14°C° 1,3 mm 0 m/S 585 mmHg 95%
    21:00 +14°C° 1,3 mm 0 m/S 586 mmHg 96%
    22:00 +13°C° 1,3 mm 0 m/S 586 mmHg 97%
    23:00 +13°C° 0,8 mm 0 m/S 586 mmHg 97%

    29 September, Freitag

    Zeit Temperatur Niederschläge Wind Luftdruck Luftfeuchtigkeit
    00:00 +13°C° 0,8 mm 0 m/S 585 mmHg 97%
    01:00 +13°C° 0,8 mm 0 m/S 585 mmHg 97%
    02:00 +13°C° 0,5 mm 0 m/S 585 mmHg 97%
    03:00 +12°C° 0,5 mm 0 m/S 585 mmHg 97%
    04:00 +12°C° 0,5 mm 0 m/S 584 mmHg 97%
    05:00 +13°C° 0,4 mm 0 m/S 585 mmHg 96%
    06:00 +13°C° 0,4 mm 0 m/S 586 mmHg 95%
    07:00 +13°C° 0,4 mm 0 m/S 586 mmHg 94%
    08:00 +14°C° 0,4 mm 0 m/S 587 mmHg 88%
    09:00 +16°C° 0,4 mm 0 m/S 588 mmHg 83%
    10:00 +19°C° 0,4 mm 1 m/S 588 mmHg 78%
    11:00 +20°C° 0,7 mm 1 m/S 588 mmHg 77%
    12:00 +20°C° 0,7 mm 1 m/S 587 mmHg 75%
    13:00 +21°C° 0,7 mm 1 m/S 587 mmHg 74%
    14:00 +21°C° 1,3 mm 1 m/S 586 mmHg 75%
    15:00 +20°C° 1,3 mm 1 m/S 586 mmHg 77%
    16:00 +20°C° 1,3 mm 1 m/S 585 mmHg 79%
    17:00 +16°C° 1,5 mm 0 m/S 585 mmHg 84%
    18:00 +15°C° 1,5 mm 0 m/S 585 mmHg 88%
    19:00 +14°C° 1,5 mm 0 m/S 585 mmHg 93%
    20:00 +14°C° 1,7 mm 0 m/S 585 mmHg 94%
    21:00 +13°C° 1,7 mm 0 m/S 586 mmHg 95%
    22:00 +13°C° 1,7 mm 0 m/S 586 mmHg 96%
    23:00 +13°C° 1,7 mm 0 m/S 585 mmHg 96%

    30 September, Samstag

    Zeit Temperatur Niederschläge Wind Luftdruck Luftfeuchtigkeit
    00:00 +13°C° 1,7 mm 0 m/S 585 mmHg 96%
    01:00 +13°C° 1,7 mm 0 m/S 585 mmHg 96%
    02:00 +12°C° 1 mm 0 m/S 585 mmHg 96%
    03:00 +12°C° 1 mm 0 m/S 585 mmHg 96%
    04:00 +12°C° 1 mm 0 m/S 585 mmHg 96%
    05:00 +12°C° 0,5 mm 0 m/S 585 mmHg 95%
    06:00 +13°C° 0,5 mm 0 m/S 586 mmHg 95%
    07:00 +13°C° 0,5 mm 0 m/S 586 mmHg 94%
    08:00 +15°C° 0,3 mm 0 m/S 587 mmHg 87%
    09:00 +16°C° 0,3 mm 0 m/S 588 mmHg 80%
    10:00 +18°C° 0,3 mm 0 m/S 588 mmHg 73%
    11:00 +18°C° 0,7 mm 0 m/S 588 mmHg 74%
    12:00 +18°C° 0,7 mm 0 m/S 587 mmHg 74%
    13:00 +19°C° 0,7 mm 0 m/S 587 mmHg 75%
    14:00 +18°C° 1,4 mm 0 m/S 586 mmHg 78%
    15:00 +17°C° 1,4 mm 0 m/S 586 mmHg 81%
    16:00 +19°C° 1,4 mm 1 m/S 585 mmHg 84%
    17:00 +16°C° 1,3 mm 0 m/S 585 mmHg 87%
    18:00 +15°C° 1,3 mm 0 m/S 585 mmHg 91%
    19:00 +14°C° 1,3 mm 0 m/S 585 mmHg 94%
    20:00 +14°C° 1,9 mm 0 m/S 586 mmHg 95%
    21:00 +13°C° 1,9 mm 0 m/S 586 mmHg 96%
    22:00 +13°C° 1,9 mm 0 m/S 586 mmHg 97%
    23:00 +13°C° 2,4 mm 0 m/S 586 mmHg 97%
    Mehr zeigen